GFSFLT2_prec_pwat_132.txt.gz
Precipitable_Water
0.97 1.05 1.17 1.40 1.55 1.45 1.38 1.36 1.29 1.21 1.17 1.17 1.18 1.17 1.16 1.18 1.20 1.24 1.23 1.24 1.29 1.29 1.31 1.37 1.42 1.43 1.44 1.41 1.39 1.34 1.30 1.33
0.68 1.15 1.14 1.20 1.50 1.50 1.40 1.41 1.36 1.26 1.21 1.18 1.19 1.21 1.19 1.18 1.21 1.26 1.24 1.24 1.27 1.27 1.33 1.37 1.41 1.41 1.39 1.36 1.34 1.35 1.33 1.30
0.50 0.80 1.22 1.36 1.36 1.53 1.46 1.41 1.41 1.33 1.26 1.22 1.21 1.23 1.22 1.21 1.22 1.26 1.27 1.24 1.25 1.25 1.32 1.37 1.39 1.40 1.36 1.32 1.30 1.36 1.35 1.32
0.46 0.44 0.50 0.77 1.37 1.45 1.51 1.47 1.42 1.38 1.30 1.24 1.23 1.22 1.23 1.20 1.21 1.25 1.28 1.26 1.26 1.27 1.31 1.33 1.35 1.37 1.33 1.31 1.29 1.31 1.32 1.35
0.41 0.48 0.47 0.51 0.66 1.28 1.55 1.53 1.53 1.44 1.35 1.28 1.23 1.24 1.24 1.22 1.21 1.25 1.27 1.26 1.24 1.27 1.28 1.28 1.28 1.31 1.27 1.29 1.25 1.28 1.33 1.35
0.34 0.39 0.44 0.48 0.48 0.71 1.10 1.63 1.63 1.56 1.44 1.36 1.24 1.19 1.19 1.16 1.16 1.19 1.22 1.24 1.19 1.24 1.24 1.25 1.27 1.26 1.24 1.26 1.21 1.28 1.36 1.36
0.31 0.35 0.39 0.42 0.45 0.51 0.71 0.97 1.53 1.66 1.67 1.58 1.42 1.23 1.13 1.15 1.14 1.16 1.19 1.24 1.20 1.21 1.23 1.22 1.22 1.21 1.30 1.32 1.27 1.30 1.33 1.35
0.34 0.33 0.35 0.38 0.41 0.44 0.48 0.75 1.12 1.55 1.69 1.72 1.62 1.38 1.20 1.15 1.14 1.11 1.13 1.22 1.25 1.24 1.20 1.18 1.18 1.18 1.27 1.37 1.34 1.30 1.29 1.26
0.35 0.37 0.39 0.38 0.37 0.41 0.45 0.49 0.74 1.14 1.43 1.71 1.76 1.52 1.27 1.19 1.17 1.13 1.11 1.27 1.33 1.31 1.23 1.22 1.18 1.18 1.22 1.32 1.39 1.32 1.26 1.23
0.38 0.40 0.39 0.39 0.40 0.41 0.42 0.47 0.52 0.74 1.02 1.36 1.73 1.71 1.43 1.24 1.16 1.15 1.13 1.28 1.34 1.31 1.24 1.13 1.12 1.13 1.16 1.24 1.29 1.27 1.26 1.24
0.39 0.39 0.37 0.39 0.40 0.42 0.44 0.43 0.49 0.64 0.83 1.17 1.48 1.73 1.64 1.35 1.20 1.19 1.21 1.21 1.30 1.29 1.23 1.14 1.08 1.13 1.17 1.21 1.29 1.24 1.22 1.21
0.40 0.38 0.38 0.39 0.41 0.42 0.43 0.46 0.45 0.51 0.58 0.87 1.41 1.58 1.72 1.55 1.34 1.27 1.27 1.21 1.30 1.27 1.21 1.19 1.11 1.12 1.12 1.13 1.25 1.27 1.24 1.20
0.38 0.38 0.39 0.39 0.39 0.39 0.39 0.40 0.42 0.43 0.52 0.61 0.99 1.54 1.61 1.70 1.52 1.33 1.31 1.20 1.21 1.23 1.22 1.15 1.09 1.14 1.06 1.07 1.18 1.19 1.21 1.15
0.40 0.42 0.42 0.43 0.43 0.43 0.44 0.42 0.43 0.45 0.47 0.51 0.80 1.18 1.56 1.66 1.68 1.42 1.30 1.26 1.22 1.20 1.19 1.10 1.11 1.13 0.96 0.99 0.84 0.98 1.09 1.17
0.45 0.47 0.48 0.48 0.49 0.48 0.47 0.46 0.45 0.46 0.46 0.48 0.60 0.99 1.34 1.59 1.73 1.61 1.39 1.34 1.20 1.18 1.20 1.10 0.98 1.06 1.09 0.95 0.78 0.69 0.86 1.00
0.50 0.51 0.51 0.50 0.51 0.48 0.47 0.44 0.39 0.45 0.49 0.50 0.50 0.72 1.08 1.45 1.63 1.63 1.51 1.34 1.25 1.19 1.22 1.14 1.07 0.91 1.08 1.13 1.04 0.90 0.74 0.70
0.52 0.52 0.52 0.53 0.53 0.52 0.50 0.49 0.50 0.48 0.51 0.52 0.49 0.52 0.80 1.19 1.45 1.65 1.60 1.43 1.31 1.25 1.21 1.18 1.12 0.98 0.98 1.03 1.05 0.98 0.94 0.77
0.51 0.52 0.53 0.56 0.57 0.58 0.55 0.51 0.52 0.50 0.49 0.50 0.51 0.50 0.57 0.93 1.25 1.39 1.65 1.54 1.33 1.26 1.23 1.21 1.10 1.08 1.05 1.06 1.00 0.90 0.83 0.83
0.51 0.53 0.53 0.55 0.56 0.57 0.60 0.60 0.57 0.56 0.55 0.54 0.55 0.49 0.50 0.74 1.02 1.33 1.43 1.68 1.42 1.34 1.31 1.21 1.14 1.08 1.04 1.02 1.09 1.06 1.04 1.00
0.54 0.52 0.53 0.56 0.58 0.60 0.64 0.67 0.66 0.63 0.62 0.58 0.55 0.56 0.57 0.68 0.86 1.08 1.36 1.35 1.52 1.33 1.36 1.25 1.19 1.09 1.04 1.01 1.00 1.06 1.12 1.10

GFSFLT2_prec_pwat_135.txt.gz
Precipitable_Water
0.89 1.25 1.33 1.33 1.37 1.47 1.59 1.47 1.40 1.41 1.33 1.27 1.27 1.27 1.26 1.27 1.28 1.27 1.26 1.27 1.24 1.28 1.30 1.30 1.35 1.38 1.40 1.41 1.39 1.32 1.28 1.30
0.51 0.67 0.84 1.13 1.32 1.47 1.59 1.61 1.49 1.43 1.39 1.29 1.24 1.23 1.27 1.29 1.31 1.29 1.28 1.28 1.24 1.25 1.26 1.29 1.37 1.39 1.36 1.35 1.36 1.31 1.27 1.26
0.46 0.52 0.57 0.59 0.76 1.12 1.46 1.62 1.61 1.53 1.52 1.42 1.31 1.25 1.24 1.26 1.29 1.30 1.27 1.28 1.24 1.23 1.24 1.27 1.35 1.39 1.34 1.31 1.30 1.26 1.28 1.24
0.34 0.37 0.43 0.51 0.52 0.63 0.99 1.43 1.63 1.61 1.55 1.51 1.41 1.31 1.26 1.24 1.27 1.31 1.30 1.28 1.25 1.21 1.23 1.28 1.34 1.36 1.32 1.29 1.25 1.23 1.26 1.24
0.32 0.33 0.35 0.37 0.41 0.50 0.58 0.99 1.39 1.62 1.66 1.59 1.51 1.41 1.33 1.28 1.25 1.29 1.31 1.31 1.28 1.24 1.22 1.26 1.30 1.30 1.28 1.24 1.23 1.22 1.24 1.27
0.29 0.31 0.31 0.33 0.36 0.39 0.45 0.52 0.90 1.25 1.47 1.65 1.60 1.46 1.35 1.27 1.22 1.23 1.27 1.29 1.25 1.21 1.18 1.22 1.26 1.29 1.28 1.19 1.23 1.19 1.21 1.26
0.29 0.31 0.32 0.32 0.32 0.32 0.36 0.40 0.50 0.75 1.27 1.51 1.66 1.64 1.44 1.34 1.27 1.24 1.25 1.28 1.23 1.19 1.17 1.17 1.22 1.26 1.27 1.19 1.21 1.21 1.25 1.29
0.32 0.33 0.35 0.34 0.33 0.35 0.34 0.34 0.40 0.47 0.67 1.27 1.52 1.63 1.73 1.48 1.31 1.25 1.23 1.26 1.24 1.19 1.15 1.16 1.20 1.24 1.19 1.21 1.22 1.27 1.30 1.29
0.34 0.35 0.37 0.36 0.37 0.37 0.36 0.37 0.38 0.39 0.45 0.68 1.24 1.37 1.60 1.78 1.52 1.29 1.23 1.26 1.24 1.23 1.21 1.24 1.21 1.22 1.17 1.24 1.30 1.33 1.34 1.27
0.38 0.39 0.39 0.38 0.38 0.38 0.37 0.37 0.37 0.38 0.42 0.50 0.75 1.20 1.42 1.62 1.75 1.46 1.31 1.28 1.23 1.21 1.21 1.18 1.19 1.14 1.11 1.17 1.24 1.36 1.41 1.26
0.40 0.40 0.40 0.40 0.39 0.39 0.37 0.36 0.36 0.38 0.43 0.45 0.50 0.76 1.21 1.55 1.70 1.66 1.42 1.30 1.22 1.21 1.24 1.22 1.14 1.11 1.08 1.16 1.23 1.25 1.31 1.26
0.43 0.43 0.43 0.42 0.41 0.39 0.37 0.36 0.38 0.39 0.39 0.44 0.49 0.54 0.73 1.31 1.58 1.67 1.66 1.31 1.25 1.22 1.25 1.30 1.20 1.12 1.08 1.11 1.17 1.27 1.33 1.25
0.44 0.42 0.43 0.43 0.41 0.39 0.39 0.37 0.38 0.38 0.39 0.43 0.50 0.48 0.56 0.89 1.39 1.62 1.63 1.47 1.17 1.24 1.26 1.25 1.22 1.22 1.08 1.08 1.19 1.27 1.29 1.28
0.40 0.42 0.43 0.45 0.47 0.47 0.47 0.45 0.43 0.43 0.42 0.43 0.49 0.51 0.56 0.73 1.09 1.52 1.74 1.51 1.30 1.25 1.23 1.24 1.23 1.25 1.01 1.03 0.91 1.04 1.14 1.21
0.42 0.46 0.49 0.50 0.51 0.51 0.50 0.49 0.47 0.44 0.45 0.44 0.49 0.56 0.55 0.60 0.74 1.20 1.43 1.64 1.47 1.31 1.23 1.25 1.14 1.23 1.19 0.98 0.82 0.72 0.94 1.04
0.46 0.49 0.50 0.52 0.52 0.49 0.47 0.44 0.42 0.46 0.47 0.48 0.49 0.56 0.56 0.56 0.63 0.88 1.37 1.51 1.59 1.43 1.32 1.29 1.27 1.10 1.21 1.19 1.03 0.93 0.80 0.74
0.49 0.51 0.52 0.54 0.54 0.53 0.50 0.47 0.50 0.51 0.50 0.50 0.50 0.50 0.54 0.54 0.58 0.68 1.08 1.38 1.70 1.55 1.38 1.35 1.29 1.22 1.11 1.09 1.03 0.97 0.96 0.78
0.52 0.53 0.54 0.55 0.55 0.56 0.54 0.51 0.51 0.52 0.53 0.50 0.51 0.51 0.52 0.56 0.58 0.61 0.75 1.14 1.31 1.45 1.53 1.35 1.31 1.28 1.23 1.12 1.01 0.90 0.83 0.82
0.53 0.53 0.51 0.55 0.56 0.56 0.56 0.56 0.57 0.57 0.58 0.58 0.56 0.53 0.53 0.56 0.60 0.57 0.62 0.84 1.18 1.36 1.53 1.43 1.33 1.28 1.21 1.11 1.09 1.06 1.03 0.97
0.52 0.51 0.50 0.53 0.53 0.54 0.56 0.58 0.58 0.61 0.65 0.66 0.63 0.61 0.61 0.59 0.63 0.63 0.62 0.74 0.90 1.24 1.40 1.57 1.40 1.30 1.26 1.24 1.12 1.12 1.12 1.06

GFSFLT2_prec_pwat_138.txt.gz
Precipitable_Water
0.66 0.77 0.83 0.88 1.01 1.24 1.43 1.51 1.60 1.55 1.54 1.51 1.46 1.40 1.35 1.31 1.27 1.27 1.26 1.25 1.28 1.22 1.22 1.25 1.27 1.30 1.38 1.41 1.41 1.36 1.27 1.24
0.44 0.49 0.55 0.61 0.69 0.86 1.12 1.43 1.53 1.61 1.56 1.51 1.52 1.45 1.40 1.34 1.31 1.29 1.28 1.28 1.26 1.24 1.21 1.24 1.25 1.30 1.37 1.39 1.39 1.35 1.27 1.23
0.37 0.36 0.37 0.39 0.44 0.53 0.69 0.93 1.34 1.57 1.62 1.56 1.53 1.52 1.47 1.38 1.32 1.30 1.30 1.28 1.26 1.28 1.22 1.23 1.23 1.29 1.36 1.39 1.36 1.32 1.26 1.23
0.33 0.33 0.33 0.33 0.34 0.37 0.41 0.53 0.80 1.28 1.58 1.68 1.61 1.56 1.54 1.45 1.36 1.32 1.31 1.31 1.30 1.28 1.24 1.24 1.24 1.26 1.34 1.37 1.33 1.30 1.25 1.24
0.31 0.30 0.31 0.30 0.31 0.32 0.33 0.36 0.41 0.64 1.12 1.44 1.65 1.66 1.64 1.55 1.42 1.38 1.34 1.34 1.34 1.35 1.27 1.22 1.21 1.24 1.27 1.28 1.27 1.26 1.25 1.25
0.30 0.30 0.31 0.30 0.32 0.33 0.34 0.33 0.34 0.35 0.46 0.83 1.31 1.53 1.60 1.60 1.54 1.39 1.32 1.33 1.31 1.30 1.26 1.21 1.20 1.24 1.26 1.23 1.22 1.20 1.23 1.24
0.32 0.33 0.32 0.32 0.33 0.34 0.34 0.35 0.36 0.37 0.37 0.40 0.69 1.19 1.50 1.65 1.62 1.58 1.39 1.36 1.31 1.29 1.27 1.21 1.16 1.20 1.25 1.22 1.18 1.16 1.21 1.20
0.35 0.35 0.36 0.36 0.35 0.35 0.35 0.35 0.36 0.38 0.39 0.39 0.41 0.58 1.12 1.44 1.61 1.69 1.54 1.39 1.36 1.32 1.29 1.21 1.15 1.17 1.19 1.23 1.18 1.16 1.20 1.24
0.38 0.39 0.40 0.39 0.39 0.39 0.38 0.37 0.38 0.38 0.38 0.39 0.41 0.46 0.57 1.00 1.31 1.57 1.71 1.57 1.37 1.33 1.33 1.29 1.22 1.19 1.16 1.23 1.20 1.16 1.18 1.25
0.41 0.42 0.42 0.42 0.41 0.41 0.41 0.40 0.40 0.38 0.39 0.41 0.41 0.42 0.46 0.61 0.98 1.32 1.61 1.72 1.51 1.29 1.26 1.23 1.22 1.16 1.13 1.17 1.17 1.16 1.17 1.28
0.42 0.43 0.43 0.44 0.44 0.43 0.42 0.40 0.39 0.39 0.39 0.40 0.39 0.39 0.42 0.52 0.64 1.06 1.41 1.60 1.64 1.40 1.20 1.24 1.18 1.16 1.16 1.18 1.18 1.18 1.19 1.28
0.44 0.44 0.44 0.43 0.42 0.41 0.41 0.41 0.41 0.41 0.40 0.40 0.41 0.40 0.41 0.48 0.50 0.68 1.22 1.41 1.59 1.53 1.25 1.20 1.18 1.18 1.17 1.16 1.14 1.20 1.21 1.22
0.45 0.44 0.44 0.42 0.40 0.39 0.40 0.41 0.43 0.44 0.46 0.47 0.46 0.44 0.42 0.42 0.47 0.54 0.88 1.08 1.50 1.55 1.41 1.15 1.13 1.25 1.20 1.16 1.17 1.17 1.22 1.21
0.45 0.44 0.43 0.42 0.42 0.43 0.44 0.45 0.46 0.46 0.47 0.50 0.50 0.49 0.47 0.47 0.54 0.60 0.72 1.00 1.04 1.61 1.54 1.28 1.16 1.26 1.22 1.11 0.95 1.01 1.14 1.24
0.43 0.43 0.44 0.45 0.46 0.47 0.48 0.49 0.49 0.47 0.46 0.46 0.50 0.51 0.49 0.48 0.54 0.57 0.63 0.85 1.05 1.09 1.58 1.39 1.15 1.21 1.32 1.20 0.93 0.78 0.89 1.14
0.45 0.45 0.46 0.48 0.51 0.50 0.48 0.46 0.43 0.48 0.51 0.51 0.51 0.52 0.52 0.50 0.52 0.56 0.61 0.74 0.88 1.06 1.32 1.47 1.38 1.12 1.26 1.38 1.21 1.00 0.81 0.81
0.46 0.47 0.48 0.51 0.52 0.50 0.48 0.47 0.48 0.50 0.54 0.55 0.55 0.55 0.55 0.54 0.52 0.54 0.58 0.68 0.79 0.81 1.24 1.41 1.41 1.26 1.20 1.26 1.23 1.11 1.01 0.86
0.47 0.48 0.50 0.52 0.52 0.50 0.49 0.47 0.48 0.49 0.53 0.56 0.56 0.57 0.59 0.57 0.56 0.56 0.62 0.69 0.67 0.74 0.80 1.12 1.32 1.45 1.34 1.29 1.23 1.07 0.94 0.85
0.47 0.49 0.50 0.53 0.52 0.51 0.50 0.49 0.49 0.48 0.52 0.56 0.59 0.60 0.62 0.61 0.59 0.61 0.61 0.64 0.61 0.63 0.75 0.95 1.26 1.36 1.42 1.31 1.32 1.21 1.12 0.99
0.45 0.47 0.49 0.53 0.52 0.51 0.52 0.51 0.50 0.50 0.53 0.51 0.55 0.61 0.67 0.69 0.65 0.64 0.65 0.67 0.62 0.58 0.63 0.80 1.08 1.22 1.47 1.42 1.33 1.31 1.22 1.07

GFSFLT2_prec_pwat_141.txt.gz
Precipitable_Water
0.57 0.62 0.66 0.68 0.74 0.90 1.00 1.27 1.46 1.52 1.57 1.59 1.58 1.61 1.55 1.42 1.39 1.33 1.37 1.35 1.27 1.25 1.24 1.21 1.21 1.23 1.26 1.35 1.38 1.35 1.35 1.30
0.41 0.42 0.42 0.42 0.48 0.53 0.64 0.82 1.10 1.42 1.56 1.58 1.57 1.55 1.57 1.57 1.49 1.37 1.33 1.35 1.34 1.29 1.28 1.24 1.21 1.24 1.26 1.32 1.38 1.38 1.34 1.28
0.35 0.35 0.35 0.34 0.34 0.36 0.38 0.41 0.53 0.81 1.27 1.55 1.64 1.60 1.55 1.51 1.56 1.56 1.40 1.33 1.35 1.33 1.33 1.32 1.23 1.24 1.27 1.32 1.38 1.38 1.33 1.29
0.33 0.33 0.33 0.32 0.31 0.33 0.34 0.35 0.37 0.42 0.63 0.85 1.38 1.66 1.69 1.60 1.51 1.56 1.59 1.44 1.37 1.37 1.33 1.35 1.29 1.25 1.26 1.33 1.37 1.36 1.30 1.26
0.32 0.32 0.33 0.32 0.31 0.33 0.33 0.33 0.34 0.34 0.37 0.45 0.64 1.02 1.51 1.70 1.66 1.56 1.56 1.56 1.47 1.42 1.45 1.41 1.28 1.25 1.24 1.27 1.34 1.35 1.30 1.26
0.33 0.34 0.34 0.34 0.35 0.34 0.35 0.36 0.37 0.37 0.39 0.39 0.37 0.49 0.82 1.28 1.54 1.64 1.59 1.56 1.50 1.43 1.35 1.37 1.35 1.26 1.25 1.24 1.31 1.31 1.27 1.27
0.34 0.37 0.38 0.38 0.38 0.38 0.37 0.37 0.37 0.39 0.40 0.42 0.43 0.40 0.39 0.68 1.15 1.46 1.61 1.63 1.55 1.46 1.34 1.31 1.31 1.25 1.23 1.24 1.25 1.28 1.26 1.24
0.37 0.40 0.43 0.44 0.43 0.42 0.41 0.41 0.40 0.40 0.41 0.42 0.43 0.45 0.43 0.47 0.59 1.05 1.34 1.55 1.63 1.57 1.43 1.28 1.24 1.26 1.20 1.24 1.24 1.26 1.25 1.23
0.38 0.41 0.45 0.45 0.44 0.44 0.44 0.44 0.43 0.41 0.41 0.42 0.44 0.45 0.45 0.43 0.43 0.58 0.91 1.25 1.47 1.64 1.58 1.43 1.27 1.25 1.21 1.22 1.26 1.26 1.25 1.22
0.40 0.44 0.45 0.43 0.42 0.43 0.42 0.43 0.43 0.42 0.41 0.41 0.41 0.42 0.43 0.42 0.42 0.44 0.66 0.97 1.28 1.45 1.57 1.54 1.30 1.19 1.21 1.19 1.21 1.25 1.23 1.21
0.42 0.46 0.46 0.44 0.45 0.45 0.44 0.44 0.43 0.43 0.43 0.43 0.42 0.42 0.44 0.42 0.40 0.42 0.52 0.64 0.92 1.30 1.43 1.61 1.47 1.19 1.18 1.24 1.20 1.19 1.22 1.20
0.47 0.47 0.46 0.45 0.45 0.44 0.43 0.43 0.44 0.44 0.43 0.44 0.46 0.45 0.46 0.46 0.43 0.42 0.43 0.51 0.64 1.03 1.30 1.49 1.59 1.37 1.17 1.17 1.24 1.21 1.24 1.18
0.47 0.45 0.45 0.44 0.42 0.40 0.40 0.39 0.42 0.44 0.45 0.47 0.48 0.50 0.49 0.48 0.48 0.46 0.44 0.43 0.57 0.79 1.09 1.22 1.54 1.55 1.21 1.17 1.23 1.27 1.24 1.20
0.45 0.44 0.44 0.44 0.44 0.43 0.43 0.43 0.44 0.45 0.47 0.49 0.49 0.51 0.52 0.50 0.50 0.49 0.50 0.53 0.58 0.75 0.85 1.07 1.28 1.44 1.31 1.10 0.95 1.09 1.19 1.21
0.44 0.45 0.45 0.45 0.45 0.46 0.45 0.45 0.46 0.45 0.47 0.48 0.51 0.55 0.55 0.54 0.51 0.50 0.52 0.57 0.56 0.67 0.79 0.81 0.95 1.41 1.52 1.18 0.89 0.85 0.96 1.19
0.46 0.46 0.44 0.47 0.48 0.46 0.44 0.42 0.40 0.44 0.46 0.49 0.51 0.56 0.57 0.59 0.57 0.53 0.51 0.55 0.58 0.68 0.78 0.74 0.74 0.73 1.24 1.47 1.18 1.08 0.94 0.91
0.44 0.44 0.45 0.46 0.48 0.46 0.44 0.44 0.44 0.45 0.47 0.49 0.52 0.55 0.60 0.61 0.62 0.60 0.54 0.55 0.55 0.65 0.78 0.82 0.85 0.80 0.96 1.37 1.32 1.17 1.18 1.03
0.40 0.40 0.43 0.46 0.48 0.48 0.46 0.45 0.44 0.42 0.45 0.47 0.50 0.52 0.56 0.63 0.64 0.65 0.60 0.58 0.56 0.65 0.79 0.84 0.82 0.88 0.92 1.14 1.28 1.19 1.07 1.09
0.37 0.37 0.39 0.44 0.48 0.48 0.48 0.46 0.45 0.45 0.47 0.49 0.50 0.50 0.51 0.56 0.65 0.65 0.64 0.64 0.61 0.73 0.77 0.81 0.79 0.78 1.00 1.16 1.38 1.34 1.25 1.21
0.35 0.34 0.36 0.40 0.45 0.49 0.50 0.48 0.49 0.49 0.51 0.51 0.52 0.52 0.54 0.60 0.62 0.69 0.69 0.69 0.69 0.74 0.76 0.74 0.76 0.73 0.79 0.93 1.07 1.33 1.30 1.30

GFSFLT2_prec_pwat_147.txt.gz
Precipitable_Water
0.58 0.58 0.55 0.53 0.50 0.45 0.43 0.45 0.52 0.68 0.92 1.10 1.27 1.39 1.49 1.56 1.55 1.50 1.47 1.46 1.51 1.41 1.40 1.36 1.30 1.25 1.21 1.25 1.29 1.31 1.34 1.39
0.50 0.49 0.47 0.44 0.41 0.40 0.39 0.38 0.37 0.38 0.43 0.63 0.96 1.22 1.36 1.43 1.47 1.56 1.53 1.47 1.44 1.46 1.48 1.44 1.40 1.31 1.27 1.25 1.28 1.29 1.31 1.36
0.44 0.43 0.44 0.43 0.39 0.40 0.41 0.40 0.38 0.38 0.39 0.42 0.42 0.66 0.94 1.26 1.48 1.55 1.66 1.60 1.51 1.47 1.48 1.53 1.50 1.44 1.34 1.29 1.28 1.28 1.29 1.34
0.42 0.43 0.44 0.44 0.41 0.42 0.43 0.42 0.42 0.43 0.44 0.44 0.43 0.44 0.46 0.56 0.80 1.33 1.50 1.55 1.55 1.50 1.49 1.53 1.54 1.53 1.44 1.35 1.28 1.26 1.29 1.33
0.43 0.44 0.46 0.45 0.44 0.44 0.45 0.45 0.45 0.44 0.45 0.47 0.48 0.48 0.47 0.46 0.47 0.59 1.03 1.47 1.57 1.54 1.50 1.53 1.53 1.53 1.51 1.50 1.41 1.25 1.25 1.32
0.44 0.46 0.47 0.47 0.48 0.47 0.46 0.47 0.47 0.47 0.48 0.49 0.48 0.48 0.48 0.48 0.48 0.48 0.51 0.84 1.14 1.50 1.59 1.56 1.55 1.52 1.50 1.48 1.54 1.46 1.21 1.32
0.45 0.48 0.48 0.50 0.50 0.50 0.49 0.48 0.49 0.51 0.50 0.52 0.53 0.52 0.50 0.52 0.52 0.53 0.51 0.55 0.72 0.99 1.25 1.53 1.59 1.58 1.51 1.49 1.46 1.46 1.32 1.38
0.48 0.50 0.52 0.54 0.52 0.52 0.51 0.51 0.51 0.51 0.51 0.51 0.52 0.53 0.52 0.52 0.51 0.52 0.53 0.55 0.54 0.67 0.91 1.15 1.41 1.60 1.59 1.47 1.47 1.50 1.44 1.25
0.52 0.52 0.54 0.55 0.54 0.55 0.54 0.53 0.54 0.51 0.52 0.53 0.53 0.54 0.54 0.53 0.51 0.50 0.50 0.52 0.54 0.55 0.72 0.87 1.04 1.33 1.54 1.59 1.49 1.48 1.48 1.40
0.53 0.54 0.55 0.55 0.55 0.54 0.53 0.52 0.52 0.51 0.51 0.51 0.52 0.53 0.55 0.53 0.51 0.51 0.53 0.54 0.54 0.54 0.55 0.75 0.84 0.91 1.18 1.50 1.55 1.46 1.44 1.43
0.51 0.53 0.53 0.53 0.53 0.53 0.51 0.51 0.49 0.49 0.49 0.49 0.50 0.52 0.53 0.53 0.52 0.53 0.55 0.54 0.53 0.53 0.52 0.58 0.78 0.87 0.86 1.17 1.46 1.54 1.40 1.45
0.52 0.52 0.53 0.53 0.52 0.50 0.48 0.47 0.46 0.48 0.48 0.49 0.51 0.52 0.53 0.52 0.51 0.52 0.53 0.51 0.52 0.55 0.53 0.57 0.63 0.78 0.89 0.83 1.13 1.48 1.52 1.35
0.51 0.50 0.49 0.48 0.46 0.43 0.41 0.40 0.42 0.44 0.46 0.48 0.49 0.49 0.50 0.50 0.50 0.49 0.52 0.51 0.51 0.54 0.58 0.55 0.51 0.61 0.78 0.84 0.88 1.05 1.46 1.43
0.47 0.45 0.45 0.45 0.45 0.44 0.43 0.42 0.43 0.44 0.46 0.47 0.49 0.49 0.49 0.50 0.51 0.51 0.52 0.52 0.51 0.52 0.54 0.56 0.59 0.57 0.61 0.73 0.64 0.80 1.20 1.52
0.45 0.45 0.46 0.46 0.46 0.43 0.42 0.43 0.43 0.42 0.42 0.44 0.47 0.50 0.50 0.51 0.54 0.55 0.55 0.56 0.54 0.54 0.54 0.53 0.55 0.65 0.67 0.70 0.63 0.56 0.79 1.20
0.47 0.46 0.45 0.45 0.44 0.41 0.40 0.39 0.37 0.40 0.41 0.44 0.47 0.51 0.52 0.53 0.55 0.56 0.56 0.57 0.56 0.56 0.57 0.56 0.56 0.58 0.69 0.82 0.87 0.89 0.73 0.61
0.47 0.44 0.44 0.44 0.42 0.40 0.39 0.38 0.40 0.42 0.45 0.46 0.48 0.51 0.53 0.55 0.55 0.56 0.57 0.57 0.57 0.59 0.59 0.56 0.58 0.58 0.65 0.72 0.81 0.91 0.97 0.81
0.44 0.41 0.40 0.40 0.39 0.37 0.36 0.37 0.40 0.42 0.45 0.46 0.47 0.51 0.52 0.53 0.55 0.58 0.59 0.58 0.58 0.60 0.61 0.62 0.58 0.60 0.65 0.73 0.83 0.82 0.79 0.81
0.40 0.37 0.33 0.33 0.35 0.33 0.33 0.36 0.39 0.42 0.44 0.45 0.46 0.47 0.49 0.52 0.53 0.55 0.57 0.59 0.62 0.64 0.63 0.62 0.62 0.60 0.65 0.69 0.88 0.96 0.95 0.96
0.38 0.32 0.28 0.28 0.29 0.29 0.32 0.33 0.35 0.41 0.45 0.47 0.48 0.48 0.49 0.54 0.54 0.56 0.58 0.61 0.64 0.66 0.69 0.66 0.66 0.67 0.70 0.70 0.83 0.97 1.00 0.95